Year,Month,Day,Hour,Minute,Value (Times are PST for temperature in C)
2011,02,25,08,13,-6.20
2011,02,25,08,14,-6.10
2011,02,25,08,15,-6.00
2011,02,25,08,16,-6.00
2011,02,25,08,17,-5.90
2011,02,25,08,18,-5.80
2011,02,25,08,19,-5.70
2011,02,25,08,20,-5.60
2011,02,25,08,21,-5.50
2011,02,25,08,22,-5.40
2011,02,25,08,23,-5.30
2011,02,25,08,24,-5.30
2011,02,25,08,25,-5.20
2011,02,25,08,26,-5.20
2011,02,25,08,27,-5.10
2011,02,25,08,28,-5.10
2011,02,25,08,29,-5.00
2011,02,25,08,30,-5.00
2011,02,25,08,31,-5.00
2011,02,25,08,32,-5.00
2011,02,25,08,33,-5.10
2011,02,25,08,34,-5.10
2011,02,25,08,35,-5.10
2011,02,25,08,36,-5.10
2011,02,25,08,37,-5.10
2011,02,25,08,38,-5.00
2011,02,25,08,39,-5.00
2011,02,25,08,40,-5.00
2011,02,25,08,41,-4.90
2011,02,25,08,42,-4.90
2011,02,25,08,43,-4.80
2011,02,25,08,44,-4.70
2011,02,25,08,45,-4.60
2011,02,25,08,46,-4.60
2011,02,25,08,47,-4.50
2011,02,25,08,48,-4.50
2011,02,25,08,49,-4.40
2011,02,25,08,50,-4.40
2011,02,25,08,51,-4.40
2011,02,25,08,52,-4.40
2011,02,25,08,53,-4.40
2011,02,25,08,54,-4.40
2011,02,25,08,55,-4.50
2011,02,25,08,56,-4.50
2011,02,25,08,57,-4.50
2011,02,25,08,58,-4.50
2011,02,25,08,59,-4.60
2011,02,25,09,00,-4.50
2011,02,25,09,01,-4.60
2011,02,25,09,02,-4.60
2011,02,25,09,03,-4.60
2011,02,25,09,04,-4.60
2011,02,25,09,05,-4.60
2011,02,25,09,06,-4.60
2011,02,25,09,07,-4.60
2011,02,25,09,08,-4.50
2011,02,25,09,09,-4.50
2011,02,25,09,10,-4.50
2011,02,25,09,11,-4.50
2011,02,25,09,12,-4.50
2011,02,25,09,13,-4.50
2011,02,25,09,14,-4.40
2011,02,25,09,15,-4.40
2011,02,25,09,16,-4.40
2011,02,25,09,17,-4.30
2011,02,25,09,18,-4.30
2011,02,25,09,19,-4.30
2011,02,25,09,20,-4.30
2011,02,25,09,21,-4.30
2011,02,25,09,22,-4.30
2011,02,25,09,23,-4.20
2011,02,25,09,24,-4.20
2011,02,25,09,25,-4.20
2011,02,25,09,26,-4.20
2011,02,25,09,27,-4.10
2011,02,25,09,28,-4.10
2011,02,25,09,29,-4.10
2011,02,25,09,30,-4.00
2011,02,25,09,31,-4.00
2011,02,25,09,32,-3.90
2011,02,25,09,33,-3.90
2011,02,25,09,34,-3.90
2011,02,25,09,35,-3.90
2011,02,25,09,36,-3.90
2011,02,25,09,37,-3.90
2011,02,25,09,38,-3.90
2011,02,25,09,39,-3.80
2011,02,25,09,40,-3.80
2011,02,25,09,41,-3.80
2011,02,25,09,42,-3.80
2011,02,25,09,43,-3.80
2011,02,25,09,44,-3.80
2011,02,25,09,45,-3.90
2011,02,25,09,46,-3.90
2011,02,25,09,47,-3.90
2011,02,25,09,48,-3.90
2011,02,25,09,49,-3.90
2011,02,25,09,50,-3.90
2011,02,25,09,51,-3.90
2011,02,25,09,52,-3.90
2011,02,25,09,53,-3.90
2011,02,25,09,54,-3.90
2011,02,25,09,55,-3.90
2011,02,25,09,56,-3.90
2011,02,25,09,57,-3.80
2011,02,25,09,58,-3.80
2011,02,25,09,59,-3.80
2011,02,25,10,00,-3.70
2011,02,25,10,01,-3.70
2011,02,25,10,02,-3.70
2011,02,25,10,03,-3.60
2011,02,25,10,04,-3.60
2011,02,25,10,05,-3.60
2011,02,25,10,06,-3.60
2011,02,25,10,07,-3.60
2011,02,25,10,08,-3.60
2011,02,25,10,09,-3.60
2011,02,25,10,10,-3.60
2011,02,25,10,11,-3.60
2011,02,25,10,12,-3.60
2011,02,25,10,13,-3.60
2011,02,25,10,14,-3.60
2011,02,25,10,15,-3.70
2011,02,25,10,16,-3.70
2011,02,25,10,17,-3.70
2011,02,25,10,18,-3.70
2011,02,25,10,19,-3.70
2011,02,25,10,20,-3.70
2011,02,25,10,21,-3.70
2011,02,25,10,22,-3.70
2011,02,25,10,23,-3.70
2011,02,25,10,24,-3.60
2011,02,25,10,25,-3.60
2011,02,25,10,26,-3.60
2011,02,25,10,27,-3.60
2011,02,25,10,28,-3.60
2011,02,25,10,29,-3.60
2011,02,25,10,30,-3.60
2011,02,25,10,31,-3.60
2011,02,25,10,32,-3.60
2011,02,25,10,33,-3.60
2011,02,25,10,34,-3.60
2011,02,25,10,35,-3.70
2011,02,25,10,36,-3.70
2011,02,25,10,37,-3.70
2011,02,25,10,38,-3.70
2011,02,25,10,39,-3.70
2011,02,25,10,40,-3.70
2011,02,25,10,41,-3.70
2011,02,25,10,42,-3.70
2011,02,25,10,43,-3.70
2011,02,25,10,44,-3.70
2011,02,25,10,45,-3.70
2011,02,25,10,46,-3.70
2011,02,25,10,47,-3.70
2011,02,25,10,48,-3.70
2011,02,25,10,49,-3.60
2011,02,25,10,50,-3.60
2011,02,25,10,51,-3.60
2011,02,25,10,52,-3.50
2011,02,25,10,53,-3.50
2011,02,25,10,54,-3.50
2011,02,25,10,55,-3.40
2011,02,25,10,56,-3.40
2011,02,25,10,57,-3.40
2011,02,25,10,58,-3.40
2011,02,25,10,59,-3.40
2011,02,25,11,00,-3.40
2011,02,25,11,01,-3.40
2011,02,25,11,02,-3.40
2011,02,25,11,03,-3.40
2011,02,25,11,04,-3.40
2011,02,25,11,05,-3.30
2011,02,25,11,06,-3.30
2011,02,25,11,07,-3.30
2011,02,25,11,08,-3.20
2011,02,25,11,09,-3.20
2011,02,25,11,10,-3.10
2011,02,25,11,11,-3.10
2011,02,25,11,12,-3.00
2011,02,25,11,13,-3.00
2011,02,25,11,14,-2.90
2011,02,25,11,15,-2.90
2011,02,25,11,16,-2.80
2011,02,25,11,17,-2.70
2011,02,25,11,18,-2.70
2011,02,25,11,19,-2.70
2011,02,25,11,20,-2.60
2011,02,25,11,21,-2.60
2011,02,25,11,22,-2.60
2011,02,25,11,23,-2.60
2011,02,25,11,24,-2.50
2011,02,25,11,25,-2.50
2011,02,25,11,26,-2.50
2011,02,25,11,27,-2.50
2011,02,25,11,28,-2.50
2011,02,25,11,29,-2.50
2011,02,25,11,30,-2.50
2011,02,25,11,31,-2.50
2011,02,25,11,32,-2.50
2011,02,25,11,33,-2.40
2011,02,25,11,34,-2.30
2011,02,25,11,35,-2.30
2011,02,25,11,36,-2.20
2011,02,25,11,37,-2.10
2011,02,25,11,38,-2.00
2011,02,25,11,39,-1.90
2011,02,25,11,40,-1.90
2011,02,25,11,41,-1.90
2011,02,25,11,42,-1.80
2011,02,25,11,43,-1.80
2011,02,25,11,44,-1.80
2011,02,25,11,45,-1.70
2011,02,25,11,46,-1.70
2011,02,25,11,47,-1.80
2011,02,25,11,48,-1.80
2011,02,25,11,49,-1.90
2011,02,25,11,50,-1.90
2011,02,25,11,51,-1.90
2011,02,25,11,52,-1.80
2011,02,25,11,53,-1.80
2011,02,25,11,54,-1.80
2011,02,25,11,55,-1.80
2011,02,25,11,56,-1.80
2011,02,25,11,57,-1.80
2011,02,25,11,58,-1.70
2011,02,25,11,59,-1.70
2011,02,25,12,00,-1.70
2011,02,25,12,01,-1.70
2011,02,25,12,02,-1.70
2011,02,25,12,03,-1.70
2011,02,25,12,04,-1.80
2011,02,25,12,05,-1.90
2011,02,25,12,06,-2.00
2011,02,25,12,07,-2.00
2011,02,25,12,08,-2.00
2011,02,25,12,09,-2.00
2011,02,25,12,10,-1.90
2011,02,25,12,11,-1.90
2011,02,25,12,12,-1.80
2011,02,25,12,13,-1.80
2011,02,25,12,14,-1.70
2011,02,25,12,15,-1.60
2011,02,25,12,16,-1.60
2011,02,25,12,17,-1.60
2011,02,25,12,18,-1.60
2011,02,25,12,19,-1.60
2011,02,25,12,20,-1.60
2011,02,25,12,21,-1.60
2011,02,25,12,22,-1.60
2011,02,25,12,23,-1.60
2011,02,25,12,24,-1.70
2011,02,25,12,25,-1.70
2011,02,25,12,26,-1.70
2011,02,25,12,27,-1.70
2011,02,25,12,28,-1.70
2011,02,25,12,29,-1.60
2011,02,25,12,30,-1.60
2011,02,25,12,31,-1.60
2011,02,25,12,32,-1.50
2011,02,25,12,33,-1.50
2011,02,25,12,34,-1.50
2011,02,25,12,35,-1.50
2011,02,25,12,36,-1.50
2011,02,25,12,37,-1.50
2011,02,25,12,38,-1.60
2011,02,25,12,39,-1.60
2011,02,25,12,40,-1.60
2011,02,25,12,41,-1.60
2011,02,25,12,42,-1.60
2011,02,25,12,43,-1.70
2011,02,25,12,44,-1.80
2011,02,25,12,45,-1.80
2011,02,25,12,46,-1.90
2011,02,25,12,47,-1.90
2011,02,25,12,48,-1.90
2011,02,25,12,49,-1.90
2011,02,25,12,50,-1.90
2011,02,25,12,51,-1.90
2011,02,25,12,52,-2.00
2011,02,25,12,53,-2.00
2011,02,25,12,54,-2.00
2011,02,25,12,55,-2.10
2011,02,25,12,56,-2.10
2011,02,25,12,57,-2.10
2011,02,25,12,58,-2.20
2011,02,25,12,59,-2.20
2011,02,25,13,00,-2.20
2011,02,25,13,01,-2.20
2011,02,25,13,02,-2.20
2011,02,25,13,03,-2.20
2011,02,25,13,04,-2.30
2011,02,25,13,05,-2.30
2011,02,25,13,06,-2.30
2011,02,25,13,07,-2.30
2011,02,25,13,08,-2.30
2011,02,25,13,09,-2.20
2011,02,25,13,10,-2.20
2011,02,25,13,11,-2.20
2011,02,25,13,12,-2.20
2011,02,25,13,13,-2.20
2011,02,25,13,14,-2.20
2011,02,25,13,15,-2.30
2011,02,25,13,16,-2.20
2011,02,25,13,17,-2.20
2011,02,25,13,18,-2.20
2011,02,25,13,19,-2.20
2011,02,25,13,20,-2.20
2011,02,25,13,21,-2.30
2011,02,25,13,22,-2.30
2011,02,25,13,23,-2.30
2011,02,25,13,24,-2.40
2011,02,25,13,25,-2.40
2011,02,25,13,26,-2.40
2011,02,25,13,27,-2.40
2011,02,25,13,28,-2.40
2011,02,25,13,29,-2.50
2011,02,25,13,30,-2.50
2011,02,25,13,31,-2.40
2011,02,25,13,32,-2.50
2011,02,25,13,33,-2.50
2011,02,25,13,34,-2.40
2011,02,25,13,35,-2.40
2011,02,25,13,36,-2.40
2011,02,25,13,37,-2.40
2011,02,25,13,38,-2.40
2011,02,25,13,39,-2.40
2011,02,25,13,40,-2.30
2011,02,25,13,41,-2.30
2011,02,25,13,42,-2.30
2011,02,25,13,43,-2.30
2011,02,25,13,44,-2.30
2011,02,25,13,45,-2.30
2011,02,25,13,46,-2.30
2011,02,25,13,47,-2.30
2011,02,25,13,48,-2.30
2011,02,25,13,49,-2.30
2011,02,25,13,50,-2.30
2011,02,25,13,51,-2.30
2011,02,25,13,52,-2.30
2011,02,25,13,53,-2.30
2011,02,25,13,54,-2.30
2011,02,25,13,55,-2.30
2011,02,25,13,56,-2.30
2011,02,25,13,57,-2.30
2011,02,25,13,58,-2.40
2011,02,25,13,59,-2.40
2011,02,25,14,00,-2.40
2011,02,25,14,01,-2.40
2011,02,25,14,02,-2.40
2011,02,25,14,03,-2.40
2011,02,25,14,04,-2.40
2011,02,25,14,05,-2.40
2011,02,25,14,06,-2.40
2011,02,25,14,07,-2.40
2011,02,25,14,08,-2.40
2011,02,25,14,09,-2.40
2011,02,25,14,10,-2.40
2011,02,25,14,11,-2.40
2011,02,25,14,12,-2.40
2011,02,25,14,13,-2.40
2011,02,25,14,14,-2.40
2011,02,25,14,15,-2.40
2011,02,25,14,16,-2.40
2011,02,25,14,17,-2.40
2011,02,25,14,18,-2.40
2011,02,25,14,19,-2.40
2011,02,25,14,20,-2.50
2011,02,25,14,21,-2.50
2011,02,25,14,22,-2.50
2011,02,25,14,23,-2.40
2011,02,25,14,24,-2.40
2011,02,25,14,25,-2.40
2011,02,25,14,26,-2.40
2011,02,25,14,27,-2.40
2011,02,25,14,28,-2.40
2011,02,25,14,29,-2.40
2011,02,25,14,30,-2.40
2011,02,25,14,31,-2.40
2011,02,25,14,32,-2.40
2011,02,25,14,33,-2.40
2011,02,25,14,34,-2.40
2011,02,25,14,35,-2.40
2011,02,25,14,36,-2.40
2011,02,25,14,37,-2.50
2011,02,25,14,38,-2.40
2011,02,25,14,39,-2.50
2011,02,25,14,40,-2.50
2011,02,25,14,41,-2.50
2011,02,25,14,42,-2.40
2011,02,25,14,43,-2.40
2011,02,25,14,44,-2.40
2011,02,25,14,45,-2.40
2011,02,25,14,46,-2.40
2011,02,25,14,47,-2.40
2011,02,25,14,48,-2.40
2011,02,25,14,49,-2.40
2011,02,25,14,50,-2.40
2011,02,25,14,51,-2.40
2011,02,25,14,52,-2.40
2011,02,25,14,53,-2.30
2011,02,25,14,54,-2.30
2011,02,25,14,55,-2.30
2011,02,25,14,56,-2.30
2011,02,25,14,57,-2.30
2011,02,25,14,58,-2.30
2011,02,25,14,59,-2.30
2011,02,25,15,00,-2.30
2011,02,25,15,01,-2.30
2011,02,25,15,02,-2.20
2011,02,25,15,03,-2.20
2011,02,25,15,04,-2.20
2011,02,25,15,05,-2.20
2011,02,25,15,06,-2.30
2011,02,25,15,07,-2.30
2011,02,25,15,08,-2.30
2011,02,25,15,09,-2.30
2011,02,25,15,10,-2.30
2011,02,25,15,11,-2.30
2011,02,25,15,12,-2.30
2011,02,25,15,13,-2.30
2011,02,25,15,14,-2.30
2011,02,25,15,15,-2.30
2011,02,25,15,16,-2.20
2011,02,25,15,17,-2.20
2011,02,25,15,18,-2.20
2011,02,25,15,19,-2.20
2011,02,25,15,20,-2.20
2011,02,25,15,21,-2.20
2011,02,25,15,22,-2.20
2011,02,25,15,23,-2.20
2011,02,25,15,24,-2.20
2011,02,25,15,25,-2.20
2011,02,25,15,26,-2.20
2011,02,25,15,27,-2.20
2011,02,25,15,28,-2.20
2011,02,25,15,29,-2.20
2011,02,25,15,30,-2.20
2011,02,25,15,31,-2.20
2011,02,25,15,32,-2.20
2011,02,25,15,33,-2.20
2011,02,25,15,34,-2.20
2011,02,25,15,35,-2.20
2011,02,25,15,36,-2.20
2011,02,25,15,37,-2.20
2011,02,25,15,38,-2.20
2011,02,25,15,39,-2.20
2011,02,25,15,40,-2.20
2011,02,25,15,41,-2.20
2011,02,25,15,42,-2.20
2011,02,25,15,43,-2.20
2011,02,25,15,44,-2.20
2011,02,25,15,45,-2.20
2011,02,25,15,46,-2.20
2011,02,25,15,47,-2.20
2011,02,25,15,48,-2.20
2011,02,25,15,49,-2.20
2011,02,25,15,50,-2.20
2011,02,25,15,51,-2.20
2011,02,25,15,52,-2.20
2011,02,25,15,53,-2.20
2011,02,25,15,54,-2.30
2011,02,25,15,55,-2.30
2011,02,25,15,56,-2.30
2011,02,25,15,57,-2.30
2011,02,25,15,58,-2.30
2011,02,25,15,59,-2.30
2011,02,25,16,00,-2.30
2011,02,25,16,01,-2.30
2011,02,25,16,02,-2.30
2011,02,25,16,03,-2.30
2011,02,25,16,04,-2.30
2011,02,25,16,05,-2.30
2011,02,25,16,06,-2.30
2011,02,25,16,07,-2.30
2011,02,25,16,08,-2.30
2011,02,25,16,09,-2.30
2011,02,25,16,10,-2.40
2011,02,25,16,11,-2.40
2011,02,25,16,12,-2.40
2011,02,25,16,13,-2.40
2011,02,25,16,14,-2.40
2011,02,25,16,15,-2.40
2011,02,25,16,16,-2.40
2011,02,25,16,17,-2.40
2011,02,25,16,18,-2.40
2011,02,25,16,19,-2.40
2011,02,25,16,20,-2.40
2011,02,25,16,21,-2.40
2011,02,25,16,22,-2.40
2011,02,25,16,23,-2.40
2011,02,25,16,24,-2.40
2011,02,25,16,25,-2.50
2011,02,25,16,26,-2.50
2011,02,25,16,27,-2.50
2011,02,25,16,28,-2.50
2011,02,25,16,29,-2.50
2011,02,25,16,30,-2.50
2011,02,25,16,31,-2.50
2011,02,25,16,32,-2.50
2011,02,25,16,33,-2.50
2011,02,25,16,34,-2.50
2011,02,25,16,35,-2.50
2011,02,25,16,36,-2.60
2011,02,25,16,37,-2.60
2011,02,25,16,38,-2.60
2011,02,25,16,39,-2.60
2011,02,25,16,40,-2.60
2011,02,25,16,41,-2.60
2011,02,25,16,42,-2.60
2011,02,25,16,43,-2.60
2011,02,25,16,44,-2.60
2011,02,25,16,45,-2.60
2011,02,25,16,46,-2.60
2011,02,25,16,47,-2.60
2011,02,25,16,48,-2.60
2011,02,25,16,49,-2.60
2011,02,25,16,50,-2.60
2011,02,25,16,51,-2.60
2011,02,25,16,52,-2.60
2011,02,25,16,53,-2.60
2011,02,25,16,54,-2.60
2011,02,25,16,55,-2.70
2011,02,25,16,56,-2.70
2011,02,25,16,57,-2.70
2011,02,25,16,58,-2.70
2011,02,25,16,59,-2.70
2011,02,25,17,00,-2.70
2011,02,25,17,01,-2.70
2011,02,25,17,02,-2.70
2011,02,25,17,03,-2.70
2011,02,25,17,04,-2.70
2011,02,25,17,05,-2.80
2011,02,25,17,06,-2.80
2011,02,25,17,07,-2.80
2011,02,25,17,08,-2.80
2011,02,25,17,09,-2.80
2011,02,25,17,10,-2.80
2011,02,25,17,11,-2.90
2011,02,25,17,12,-2.90
2011,02,25,17,13,-2.90
2011,02,25,17,14,-3.00
2011,02,25,17,15,-3.00
2011,02,25,17,16,-3.00
2011,02,25,17,17,-3.00
2011,02,25,17,18,-3.00
2011,02,25,17,19,-3.10
2011,02,25,17,20,-3.10
2011,02,25,17,21,-3.10
2011,02,25,17,22,-3.10
2011,02,25,17,23,-3.20
2011,02,25,17,24,-3.20
2011,02,25,17,25,-3.20
2011,02,25,17,26,-3.20
2011,02,25,17,27,-3.20
2011,02,25,17,28,-3.20
2011,02,25,17,29,-3.20
2011,02,25,17,30,-3.30
2011,02,25,17,31,-3.30
2011,02,25,17,32,-3.30
2011,02,25,17,33,-3.30
2011,02,25,17,34,-3.30
2011,02,25,17,35,-3.40
2011,02,25,17,36,-3.40
2011,02,25,17,37,-3.40
2011,02,25,17,38,-3.40
2011,02,25,17,39,-3.50
2011,02,25,17,40,-3.50
2011,02,25,17,41,-3.50
2011,02,25,17,42,-3.60
2011,02,25,17,43,-3.60
2011,02,25,17,44,-3.60
2011,02,25,17,45,-3.60
2011,02,25,17,46,-3.70
2011,02,25,17,47,-3.70
2011,02,25,17,48,-3.70
2011,02,25,17,49,-3.70
2011,02,25,17,50,-3.80
2011,02,25,17,51,-3.80
2011,02,25,17,52,-3.80
2011,02,25,17,53,-3.80
2011,02,25,17,54,-3.80
2011,02,25,17,55,-3.90
2011,02,25,17,56,-3.90
2011,02,25,17,57,-3.90
2011,02,25,17,58,-3.90
2011,02,25,17,59,-4.00
2011,02,25,18,00,-4.00
2011,02,25,18,01,-4.10
2011,02,25,18,02,-4.10
2011,02,25,18,03,-4.10
2011,02,25,18,04,-4.10
2011,02,25,18,05,-4.20
2011,02,25,18,06,-4.20
2011,02,25,18,07,-4.20
2011,02,25,18,08,-4.20
2011,02,25,18,09,-4.20
2011,02,25,18,10,-4.30
2011,02,25,18,11,-4.30
2011,02,25,18,12,-4.30
2011,02,25,18,13,-4.30
2011,02,25,18,14,-4.30
2011,02,25,18,15,-4.30
2011,02,25,18,16,-4.30
2011,02,25,18,17,-4.40
2011,02,25,18,18,-4.40
2011,02,25,18,19,-4.40
2011,02,25,18,20,-4.40
2011,02,25,18,21,-4.50
2011,02,25,18,22,-4.50
2011,02,25,18,23,-4.50
2011,02,25,18,24,-4.50
2011,02,25,18,25,-4.60
2011,02,25,18,26,-4.60
2011,02,25,18,27,-4.60
2011,02,25,18,28,-4.60
2011,02,25,18,29,-4.70
2011,02,25,18,30,-4.70
2011,02,25,18,31,-4.70
2011,02,25,18,32,-4.70
2011,02,25,18,33,-4.80
2011,02,25,18,34,-4.80
2011,02,25,18,35,-4.80
2011,02,25,18,36,-4.80
2011,02,25,18,37,-4.80
2011,02,25,18,38,-4.90
2011,02,25,18,39,-4.90
2011,02,25,18,40,-4.90
2011,02,25,18,41,-4.90
2011,02,25,18,42,-5.00
2011,02,25,18,43,-5.00
2011,02,25,18,44,-5.10
2011,02,25,18,45,-5.10
2011,02,25,18,46,-5.10
2011,02,25,18,47,-5.10
2011,02,25,18,48,-5.10
2011,02,25,18,49,-5.20
2011,02,25,18,50,-5.20
2011,02,25,18,51,-5.20
2011,02,25,18,52,-5.20
2011,02,25,18,53,-5.20
2011,02,25,18,54,-5.30
2011,02,25,18,55,-5.30
2011,02,25,18,56,-5.30
2011,02,25,18,57,-5.30
2011,02,25,18,58,-5.30
2011,02,25,18,59,-5.30
2011,02,25,19,00,-5.30
2011,02,25,19,01,-5.40
2011,02,25,19,02,-5.40
2011,02,25,19,03,-5.40
2011,02,25,19,04,-5.40
2011,02,25,19,05,-5.40
2011,02,25,19,06,-5.40
2011,02,25,19,07,-5.50
2011,02,25,19,08,-5.50
2011,02,25,19,09,-5.50
2011,02,25,19,10,-5.50
2011,02,25,19,11,-5.60
2011,02,25,19,12,-5.60
2011,02,25,19,13,-5.60
2011,02,25,19,14,-5.60
2011,02,25,19,15,-5.60
2011,02,25,19,16,-5.70
2011,02,25,19,17,-5.70
2011,02,25,19,18,-5.70
2011,02,25,19,19,-5.70
2011,02,25,19,20,-5.70
2011,02,25,19,21,-5.80
2011,02,25,19,22,-5.80
2011,02,25,19,23,-5.80
2011,02,25,19,24,-5.90
2011,02,25,19,25,-5.90
2011,02,25,19,26,-5.90
2011,02,25,19,27,-6.00
2011,02,25,19,28,-6.00
2011,02,25,19,29,-6.00
2011,02,25,19,30,-6.00
2011,02,25,19,31,-6.00
2011,02,25,19,32,-6.10
2011,02,25,19,33,-6.10
2011,02,25,19,34,-6.10
2011,02,25,19,35,-6.10
2011,02,25,19,36,-6.10
2011,02,25,19,37,-6.20
2011,02,25,19,38,-6.20
2011,02,25,19,39,-6.20
2011,02,25,19,40,-6.20
2011,02,25,19,41,-6.20
2011,02,25,19,42,-6.20
2011,02,25,19,43,-6.20
2011,02,25,19,44,-6.30
2011,02,25,19,45,-6.30
2011,02,25,19,46,-6.30
2011,02,25,19,47,-6.30
2011,02,25,19,48,-6.30
2011,02,25,19,49,-6.30
2011,02,25,19,50,-6.30
2011,02,25,19,51,-6.30
2011,02,25,19,52,-6.30
2011,02,25,19,53,-6.40
2011,02,25,19,54,-6.40
2011,02,25,19,55,-6.40
2011,02,25,19,56,-6.40
2011,02,25,19,57,-6.40
2011,02,25,19,58,-6.40
2011,02,25,19,59,-6.40
2011,02,25,20,00,-6.40
2011,02,25,20,01,-6.40
2011,02,25,20,02,-6.50
2011,02,25,20,03,-6.50
2011,02,25,20,04,-6.50
2011,02,25,20,05,-6.50
2011,02,25,20,06,-6.60
2011,02,25,20,07,-6.60
2011,02,25,20,08,-6.60
2011,02,25,20,09,-6.60
2011,02,25,20,10,-6.60
2011,02,25,20,11,-6.60
2011,02,25,20,12,-6.60
2011,02,25,20,13,-6.60
2011,02,25,20,14,-6.70
2011,02,25,20,15,-6.70
2011,02,25,20,16,-6.70
2011,02,25,20,17,-6.70
2011,02,25,20,18,-6.70
2011,02,25,20,19,-6.70
2011,02,25,20,20,-6.70
2011,02,25,20,21,-6.70
2011,02,25,20,22,-6.70
2011,02,25,20,23,-6.70
2011,02,25,20,24,-6.70
2011,02,25,20,25,-6.80
2011,02,25,20,26,-6.80
2011,02,25,20,27,-6.80
2011,02,25,20,28,-6.80
2011,02,25,20,29,-6.80
2011,02,25,20,30,-6.80
2011,02,25,20,31,-6.80
2011,02,25,20,32,-6.90
2011,02,25,20,33,-6.90
2011,02,25,20,34,-6.90
2011,02,25,20,35,-6.90
2011,02,25,20,36,-6.90
2011,02,25,20,37,-6.90
2011,02,25,20,38,-6.90
2011,02,25,20,39,-6.90
2011,02,25,20,40,-6.90
2011,02,25,20,41,-6.90
2011,02,25,20,42,-6.90
2011,02,25,20,43,-6.90
2011,02,25,20,44,-6.90
2011,02,25,20,45,-6.90
2011,02,25,20,46,-6.90
2011,02,25,20,47,-6.90
2011,02,25,20,48,-6.90
2011,02,25,20,49,-6.90
2011,02,25,20,50,-6.90
2011,02,25,20,51,-7.00
2011,02,25,20,52,-7.00
2011,02,25,20,53,-7.00
2011,02,25,20,54,-7.00
2011,02,25,20,55,-7.00
2011,02,25,20,56,-7.00
2011,02,25,20,57,-7.00
2011,02,25,20,58,-7.00
2011,02,25,20,59,-7.00
2011,02,25,21,00,-7.00
2011,02,25,21,01,-7.00
2011,02,25,21,02,-7.10
2011,02,25,21,03,-7.10
2011,02,25,21,04,-7.00
2011,02,25,21,05,-7.00
2011,02,25,21,06,-7.00
2011,02,25,21,07,-7.00
2011,02,25,21,08,-7.00
2011,02,25,21,09,-7.00
2011,02,25,21,10,-7.00
2011,02,25,21,11,-7.00
2011,02,25,21,12,-7.00
2011,02,25,21,13,-7.10
2011,02,25,21,14,-7.10
2011,02,25,21,15,-7.10
2011,02,25,21,16,-7.10
2011,02,25,21,17,-7.10
2011,02,25,21,18,-7.10
2011,02,25,21,19,-7.10
2011,02,25,21,20,-7.10
2011,02,25,21,21,-7.10
2011,02,25,21,22,-7.10
2011,02,25,21,23,-7.10
2011,02,25,21,24,-7.10
2011,02,25,21,25,-7.10
2011,02,25,21,26,-7.10
2011,02,25,21,27,-7.10
2011,02,25,21,28,-7.10
2011,02,25,21,29,-7.10
2011,02,25,21,30,-7.10
2011,02,25,21,31,-7.10
2011,02,25,21,32,-7.10
2011,02,25,21,33,-7.10
2011,02,25,21,34,-7.10
2011,02,25,21,35,-7.10
2011,02,25,21,36,-7.10
2011,02,25,21,37,-7.10
2011,02,25,21,38,-7.10
2011,02,25,21,39,-7.10
2011,02,25,21,40,-7.10
2011,02,25,21,41,-7.10
2011,02,25,21,42,-7.20
2011,02,25,21,43,-7.20
2011,02,25,21,44,-7.20
2011,02,25,21,45,-7.20
2011,02,25,21,46,-7.20
2011,02,25,21,47,-7.20
2011,02,25,21,48,-7.20
2011,02,25,21,49,-7.20
2011,02,25,21,50,-7.20
2011,02,25,21,51,-7.20
2011,02,25,21,52,-7.20
2011,02,25,21,53,-7.20
2011,02,25,21,54,-7.20
2011,02,25,21,55,-7.20
2011,02,25,21,56,-7.20
2011,02,25,21,57,-7.20
2011,02,25,21,58,-7.20
2011,02,25,21,59,-7.20
2011,02,25,22,00,-7.20
2011,02,25,22,01,-7.30
2011,02,25,22,02,-7.30
2011,02,25,22,03,-7.30
2011,02,25,22,04,-7.30
2011,02,25,22,05,-7.30
2011,02,25,22,06,-7.30
2011,02,25,22,07,-7.30
2011,02,25,22,08,-7.30
2011,02,25,22,09,-7.30
2011,02,25,22,10,-7.30
2011,02,25,22,11,-7.30
2011,02,25,22,12,-7.30
2011,02,25,22,13,-7.40
2011,02,25,22,14,-7.40
2011,02,25,22,15,-7.40
2011,02,25,22,16,-7.40
2011,02,25,22,17,-7.40
2011,02,25,22,18,-7.40
2011,02,25,22,19,-7.40
2011,02,25,22,20,-7.40
2011,02,25,22,21,-7.40
2011,02,25,22,22,-7.40
2011,02,25,22,23,-7.40
2011,02,25,22,24,-7.50
2011,02,25,22,25,-7.50
2011,02,25,22,26,-7.50
2011,02,25,22,27,-7.50
2011,02,25,22,28,-7.50
2011,02,25,22,29,-7.50
2011,02,25,22,30,-7.50
2011,02,25,22,31,-7.50
2011,02,25,22,32,-7.50
2011,02,25,22,33,-7.50
2011,02,25,22,34,-7.50
2011,02,25,22,35,-7.50
2011,02,25,22,36,-7.50
2011,02,25,22,37,-7.50
2011,02,25,22,38,-7.50
2011,02,25,22,39,-7.50
2011,02,25,22,40,-7.50
2011,02,25,22,41,-7.40
2011,02,25,22,42,-7.40
2011,02,25,22,43,-7.40
2011,02,25,22,44,-7.40
2011,02,25,22,45,-7.40
2011,02,25,22,46,-7.40
2011,02,25,22,47,-7.40
2011,02,25,22,48,-7.40
2011,02,25,22,49,-7.40
2011,02,25,22,50,-7.40
2011,02,25,22,51,-7.40
2011,02,25,22,52,-7.40
2011,02,25,22,53,-7.40
2011,02,25,22,54,-7.40
2011,02,25,22,55,-7.40
2011,02,25,22,56,-7.40
2011,02,25,22,57,-7.40
2011,02,25,22,58,-7.40
2011,02,25,22,59,-7.40
2011,02,25,23,00,-7.40
2011,02,25,23,01,-7.40
2011,02,25,23,02,-7.40
2011,02,25,23,03,-7.40
2011,02,25,23,04,-7.40
2011,02,25,23,05,-7.40
2011,02,25,23,06,-7.40
2011,02,25,23,07,-7.40
2011,02,25,23,08,-7.40
2011,02,25,23,09,-7.40
2011,02,25,23,10,-7.40
2011,02,25,23,11,-7.40
